Retour au catalogue

CZ-3C DEB

ActifGTO
NORAD 39353·DEBRIS·🇨🇳 China

Lancé Oct 31, 2010 depuis Xichang Satellite Launch Center

Loading…

TLE

VieillissantSource: Space-Track

Époque: Sep 14, 2026, 13:30 UTC

1 39353U 10057T   26257.56254654  .00000007  00000-0  35211-2 0  9996
2 39353  20.4013  46.8582 7145727 261.8480  25.8657  2.24423604105804

Suivez CZ-3C DEB en temps réel avec AllMySat

Download on the App Store